User: anonymous   Login
Location: Unspecified
(0.0000°N, 0.0000°E)
Time: 11:12:47
(UTC+00:00)
Language:

Telecom 1A - Orbit

View from above orbital plane
View from above orbital plane
View from above satellite
View from above satellite

Ground track
Ground track

The orbit data is extracted from the following two-line orbital elements,

1 15159U 84081B   18019.45061808 -.00000004 +00000-0 +00000-0 0  9998
2 15159 015.5558 359.2424 0040472 324.6967 208.9219 00.98396925088407
Epoch (UTC): 19 January 2018 10:48:53
Eccentricity: 0.0040472
inclination: 15.5558°
perigee height: 36147 km
apogee height: 36493 km
right ascension of ascending node: 359.2424°
argument of perigee: 324.6967°
revolutions per day: 0.98396925
mean anomaly at epoch: 208.9219°
orbit number at epoch: 8840

The dashed part of the orbit path shows where the satellite is in the earth's shadow,  

DLR